IRIDIUM 128

Last updated on Sun Jun 21 2026 00:03:14 GMT+0000 (Coordinated Universal Time)

1 42811U 17039J 26170.99989226 .00000001 00000+0 -65930-5 0 9995 2 42811 86.3962 23.9741 0001908 89.5163 270.6251 14.34217482470389
UTC large
Height (km)
Speed (km/s)
/
Latitude / Longitude
Inclination (degrees)
Orbital Period (minutes)
Azimuth
Elevation
Range (km)
Doppler Factor

Next 0 passes for location: London (51.5072 / 0.1276)

No passes found over London.
IRIDIUM 128